Flag for United Kingdom Weather past 2 weeks in Derby, England, United Kingdom

Now
46 °F

Passing clouds.


Feels Like: 40 °F
Forecast: 44 / 56 °F
Wind: 15 mph from West

Location: East Midlands

Current Time: May 7, 2015 at 12:47:41 AM

Latest Report: May 7, 2015 at 12:20 AM


Visibility: N/A

Pressure: 29.80 "Hg

Humidity: 87%

Dew point: 43 °F

Location of DerbyLocation

Historic Weather in Derby — Graph

°F

Derby temperature yesterday

Maximum temperature yesterday: 52 °F (at 10:20 AM)
Minimum temperature yesterday: 46 °F (at 2:50 AM)
Average temperature yesterday: 49 °F

Past Weeks' High & Low Weather Summary

 TemperatureHumidityPressure
High66 °F (May 3, 2:20 PM)100% (Apr 23, 4:50 AM)30.57 "Hg (Apr 23, 4:50 AM)
Low32 °F (Apr 27, 1:50 AM)28% (Apr 26, 2:50 PM)29.06 "Hg (May 5, 8:50 AM)
Average49 °F72%29.78 "Hg
* Reported Apr 21 11:20 PM — May 6 11:20 PM, Derby, Weather by CustomWeather, © 2015

Note: Actual official high and low records may vary slightly from our data, if they occured in-between our weather recording intervals... More about our weather records

Advertising

Derby weather history for previous 24 hours

 ConditionsComfort  
Time TempWeatherWind HumidityBarometerVisibility
11:20 PM
Wed, May 6
46 °FPassing clouds.18 mph87%29.77 "HgN/A
10:50 PM46 °FPassing clouds.16 mph87%29.74 "HgN/A
10:20 PM46 °FPassing clouds.16 mph87%29.74 "HgN/A
9:50 PM48 °FPassing clouds.17 mph82%29.71 "HgN/A
9:20 PM48 °FPassing clouds.17 mph82%29.71 "HgN/A
8:50 PM48 °FScattered clouds.21 mph82%29.68 "HgN/A
8:20 PM46 °FSleet. Partly sunny.24 mph93%29.68 "HgN/A
7:50 PM52 °FBroken clouds.21 mph77%29.62 "HgN/A
7:20 PM50 °FBroken clouds.17 mph88%29.62 "HgN/A
6:50 PM50 °FScattered showers. Broken clouds.18 mph88%29.59 "Hg6 mi
6:20 PM52 °FScattered showers. Broken clouds.25 mph77%29.56 "HgN/A
5:50 PM52 °FSprinkles. Broken clouds.26 mph77%29.53 "Hg6 mi
5:20 PM52 °FBroken clouds.25 mph77%29.50 "HgN/A
4:50 PM52 °FSprinkles. Partly sunny.26 mph77%29.50 "HgN/A
4:20 PM52 °FPartly sunny.24 mph77%29.47 "HgN/A
3:50 PM52 °FBroken clouds.29 mph77%29.47 "HgN/A
3:20 PM52 °FLight rain. Broken clouds.29 mph82%29.45 "Hg5 mi
2:50 PM52 °FLight rain. Broken clouds.25 mph77%29.45 "HgN/A
2:20 PM52 °FLight rain. Partly sunny.23 mph82%29.45 "HgN/A
1:50 PM50 °FLight rain. Partly sunny.25 mph88%29.42 "HgN/A
1:20 PM50 °FLight rain. Partly sunny.22 mph88%29.42 "HgN/A
12:50 PM50 °FRain. Partly sunny.23 mph88%29.42 "Hg3 mi
12:20 PM52 °FSprinkles. Partly sunny.22 mph82%29.39 "Hg6 mi
11:50 AM50 °FSprinkles. Partly sunny.22 mph88%29.42 "Hg6 mi
11:20 AM50 °FSprinkles. Partly sunny.28 mph88%29.39 "Hg6 mi
10:50 AM50 °FSprinkles. Partly sunny.24 mph82%29.39 "Hg6 mi
10:20 AM52 °FSprinkles. Partly sunny.28 mph72%29.39 "HgN/A
9:50 AM50 °FPartly sunny.23 mph71%29.39 "HgN/A
9:20 AM50 °FPartly sunny.28 mph71%29.42 "HgN/A
8:50 AM50 °FScattered clouds.24 mph71%29.42 "HgN/A
8:20 AM50 °FScattered clouds.22 mph71%29.42 "HgN/A
7:50 AM48 °FPartly sunny.22 mph76%29.42 "HgN/A
7:20 AM48 °FScattered clouds.20 mph76%29.42 "HgN/A
6:50 AM48 °FPassing clouds.18 mph82%29.42 "HgN/A
6:20 AM46 °FPassing clouds.20 mph82%29.42 "HgN/A
5:50 AM46 °FClear.18 mph82%29.42 "Hg10 mi
5:20 AM46 °FClear.17 mph87%29.42 "Hg10 mi
4:50 AM46 °FPassing clouds.15 mph87%29.42 "HgN/A
4:20 AM46 °FClear.17 mph87%29.42 "Hg10 mi
3:50 AM46 °FClear.17 mph87%29.42 "Hg10 mi
3:20 AM46 °FClear.15 mph87%29.45 "Hg10 mi
2:50 AM46 °FPassing clouds.14 mph87%29.45 "HgN/A
2:20 AM48 °FPassing clouds.15 mph87%29.45 "HgN/A
1:50 AM48 °FPassing clouds.18 mph87%29.45 "HgN/A
1:20 AM48 °FPassing clouds.18 mph87%29.45 "HgN/A
12:50 AM48 °FPassing clouds.18 mph87%29.45 "HgN/A
12:20 AM48 °FClear.17 mph87%29.45 "Hg10 mi
Weather by CustomWeather, © 2015

See weather overviewHow to use our weather pages